Location: Newark
(34.0131°N, 4.3314°W)
Time: 22:30:00
(UTC+00:00)

Courier 1B - All Passes

Search period start: 16 October 2019 00:00
Search period end: 26 October 2019 00:00
Orbit: 962 x 1209 km, 28.3° (Epoch: 15 October)

Date Brightness Start Highest point End Pass type
(mag) Time Alt. Az. Time Alt. Az. Time Alt. Az.
16 Oct - 00:13:59 10° W 00:20:31 37° SSW 00:26:42 10° SE night (unlit)
16 Oct - 02:10:09 10° WSW 02:13:49 15° SSW 02:17:23 10° S night (unlit)
16 Oct - 17:39:35 10° SSW 17:45:15 22° SSE 17:50:51 10° ESE daylight
16 Oct - 19:31:40 10° SW 19:38:58 44° SSE 19:46:00 10° E visible
16 Oct - 21:25:29 10° WSW 21:32:57 57° S 21:40:00 10° ESE visible
16 Oct - 23:19:53 10° W 23:26:50 44° SSW 23:33:21 10° SE night (unlit)
17 Oct - 01:15:16 10° WSW 01:20:15 21° SSW 01:25:03 10° SSE night (unlit)
17 Oct - 16:46:53 10° S 16:51:31 17° SSE 16:56:08 10° ESE daylight
17 Oct - 18:38:01 10° SW 18:45:08 38° SSE 18:52:04 10° E visible
17 Oct - 20:31:32 10° WSW 20:39:05 56° S 20:46:17 10° E visible
17 Oct - 22:25:49 10° W 22:33:04 50° S 22:39:54 10° ESE visible
18 Oct - 00:20:47 10° WSW 00:26:39 27° SSW 00:32:15 10° SSE night (unlit)
18 Oct - 15:55:05 10° SSE 15:57:48 12° SSE 16:00:32 10° SE daylight
18 Oct - 17:44:32 10° SW 17:51:19 32° SSE 17:58:01 10° E daylight
18 Oct - 19:37:37 10° WSW 19:45:12 53° S 19:52:30 10° E visible
18 Oct - 21:31:47 10° W 21:39:15 54° S 21:46:19 10° ESE visible
18 Oct - 23:26:29 10° W 23:33:00 33° SSW 23:39:11 10° SE night (unlit)
19 Oct - 01:23:45 10° SW 01:26:14 12° SSW 01:28:41 10° S night (unlit)
19 Oct - 16:51:16 10° SSW 16:57:31 26° SSE 17:03:46 10° ESE daylight
19 Oct - 18:43:49 10° WSW 18:51:18 49° SSE 18:58:39 10° E visible
19 Oct - 20:37:46 10° WSW 20:45:22 57° S 20:52:39 10° ESE visible
19 Oct - 22:32:17 10° W 22:39:16 40° SSW 22:45:54 10° SE visible
20 Oct - 00:28:12 10° WSW 00:32:40 17° SSW 00:37:00 10° S night (unlit)
20 Oct - 15:58:19 10° SSW 16:03:46 21° SSE 16:09:16 10° ESE daylight
20 Oct - 17:50:07 10° SW 17:57:26 43° SSE 18:04:41 10° E visible
20 Oct - 19:43:48 10° WSW 19:51:29 58° S 19:58:54 10° ESE visible
20 Oct - 21:38:10 10° W 21:45:29 46° SSW 21:52:27 10° ESE visible
20 Oct - 23:33:26 10° WSW 23:39:04 23° SSW 23:44:26 10° SSE night (unlit)
21 Oct - 15:05:52 10° S 15:10:03 15° SSE 15:14:18 10° ESE daylight
21 Oct - 16:56:34 10° SW 17:03:35 37° SSE 17:10:39 10° E daylight
21 Oct - 18:49:54 10° WSW 18:57:34 56° S 19:05:05 10° E visible
21 Oct - 20:44:06 10° W 20:51:39 52° S 20:58:53 10° ESE visible
21 Oct - 22:38:59 10° W 22:45:23 29° SSW 22:51:30 10° SE visible
22 Oct - 14:14:53 10° SSE 14:16:23 11° SSE 14:17:53 10° SE daylight
22 Oct - 16:03:13 10° SW 16:09:46 31° SSE 16:16:27 10° E daylight
22 Oct - 17:56:05 10° WSW 18:03:38 53° S 18:11:11 10° E visible
22 Oct - 19:50:06 10° W 19:57:45 56° S 20:05:12 10° ESE visible
22 Oct - 21:44:42 10° W 21:51:38 36° SSW 21:58:18 10° SE visible
22 Oct - 23:41:23 10° WSW 23:45:01 14° SSW 23:48:35 10° S night (unlit)
23 Oct - 15:10:07 10° SSW 15:16:01 25° SSE 15:22:04 10° ESE daylight
23 Oct - 17:02:22 10° WSW 17:09:44 48° SSE 17:17:12 10° E daylight
23 Oct - 18:56:09 10° WSW 19:03:49 58° S 19:11:25 10° ESE visible
23 Oct - 20:50:33 10° W 20:57:50 43° SSW 21:04:54 10° SE visible
23 Oct - 22:46:13 10° WSW 22:51:23 20° SSW 22:56:24 10° SSE night (unlit)
24 Oct - 14:17:22 10° SSW 14:22:19 19° SSE 14:27:24 10° ESE daylight
24 Oct - 16:08:48 10° SW 16:15:53 42° SSE 16:23:09 10° E daylight
24 Oct - 18:02:16 10° WSW 18:09:53 58° S 18:17:33 10° ESE visible
24 Oct - 19:56:29 10° W 20:03:59 49° SSW 20:11:19 10° ESE visible
24 Oct - 21:51:35 10° WSW 21:57:42 25° SSW 22:03:38 10° SSE visible
25 Oct - 13:25:17 10° S 13:28:40 14° SSE 13:32:08 10° ESE daylight
25 Oct - 15:15:23 10° SW 15:22:03 35° SSE 15:28:59 10° E daylight
25 Oct - 17:08:28 10° WSW 17:15:57 55° S 17:23:37 10° E daylight
25 Oct - 19:02:30 10° W 19:10:05 53° S 19:17:37 10° ESE visible
25 Oct - 20:57:13 10° W 21:03:57 32° SSW 21:10:31 10° SE visible
25 Oct - 22:55:17 10° SW 22:57:20 11° SSW 22:59:21 10° SSW night (unlit)
